User: anonymous   Login
Location: Unspecified
(0.0000°N, 0.0000°E)
Time: 04:31:17
(UTC+02:00)
Language:

Ariane H10 - Orbit

View from above orbital plane
View from above orbital plane
View from above satellite
View from above satellite

Ground track
Ground track

The orbit data is extracted from the following two-line orbital elements,

1 19622U 88098B   17203.86407030 +.00007614 +00000-0 +95434-3 0  9990
2 19622 003.6546 124.7269 6384473 327.1323 005.8531 03.50202431305610
Epoch (UTC): 22 July 2017 20:44:15
Eccentricity: 0.6384473
inclination: 3.6546°
perigee height: 244 km
apogee height: 23633 km
right ascension of ascending node: 124.7269°
argument of perigee: 327.1323°
revolutions per day: 3.50202431
mean anomaly at epoch: 5.8531°
orbit number at epoch: 30561

The dashed part of the orbit path shows where the satellite is in the earth's shadow,  

DLR